Regional Weather Roundup
Issued by NWS

Home | Current Version | Previous Version | Graphics & Text | Print | Product List | Glossary On
Versions: 1 2 3 4 5 6 7 8 9 10 11 12 13 14 15 16 17 18 19 20 21 22 23 24 25 26 27 28 29 30 31 32 33 34 35 36 37 38 39 40 41 42 43 44 45 46 47 48 49 50
000
ASUS43 KLOT 101406
RWRIL

ILLINOIS REGIONAL WEATHER ROUNDUP
NATIONAL WEATHER SERVICE CHICAGO/ROMEOVILLE IL
900 AM CDT THU JUL 10 2014

NOTE: "FAIR" INDICATES FEW OR NO CLOUDS BELOW 12,000 FEET WITH NO
SIGNIFICANT WEATHER AND/OR OBSTRUCTIONS TO VISIBILITY.

* THESE STATIONS ARE NOT UNDER NWS QUALITY CONTROL. THEY ALSO MAY NOT
  REPORT WEATHER SUCH AS PRECIPITATION OR FOG.

ILZ001-002-007-009-015-016-024-101500-
NORTHWEST ILLINOIS

CITY           SKY/WX    TMP DP  RH WIND       PRES   REMARKS
MOLINE         SUNNY     70  60  70 S6        30.15R
STERLING*      SUNNY     72  57  60 S7        30.16S
SAVANNA*       PTSUNNY   69  58  66 CALM      30.16R
$$

ILZ003-004-008-010-011-017-018-101500-
NORTH CENTRAL ILLINOIS

CITY           SKY/WX    TMP DP  RH WIND       PRES   REMARKS
ROCKFORD       MOSUNNY   69  58  67 SW6       30.18R
FREEPORT*      PTSUNNY   66  58  75 S5        30.19R
ROCHELLE*      SUNNY     69  57  66 S6        30.17R
DE KALB*       SUNNY     68  57  68 S7        30.18R
PERU*          SUNNY     70  57  63 S7        30.17R
$$

ILZ005-006-012>014-019>023-101500-
NORTHEAST ILLINOIS

CITY           SKY/WX    TMP DP  RH WIND       PRES   REMARKS
CHICAGO-OHARE  MOSUNNY   71  56  58 CALM      30.15R
CHICAGO-MIDWAY MOSUNNY   73  59  61 CALM      30.15R
AURORA         SUNNY     70  57  63 S3        30.17R
LANSING*       SUNNY     70  56  61 CALM      30.16S
JOLIET*        SUNNY     70  55  59 CALM      30.17R
WAUKEGAN       SUNNY     66  57  72 E3        30.16R
DUPAGE AIRPORT SUNNY     71  57  61 S5        30.16R
KANKAKEE*      SUNNY     69  58  67 CALM      30.17R
WHEELING       SUNNY     71  58  63 CALM      30.17R
MORRIS*        SUNNY     70  62  75 CALM      30.16S
ROMEOVILLE*    SUNNY     69  55  62 CALM      30.17R
NORTHERLY ISL    N/A     68  59  73 NE6         N/A
$$

LMZ740>746-101500-
SOUTHERN LAKE MICHIGAN

STATION/POSITION SKY/WX   TEMP    WIND        PRES    VSBY  WAVE
                          AIR SEA DIR/SP/G                  HT/PER
                          (F)     (DEG/KT/KT) (MB)    (MI)  (FT/S)
SOUTHERN BUOY              57 56   60/  6/  6 1021.7R         0
WAUKEGAN HARBOR            61      50/  4/  4 1022.4S
HARRISON CRIB              65      80/  7/  8   N/A
BURNHAM HARBOR             68      60/  6/  6   N/A
CALUMET HARBOR             67      50/  5/  7 1021.9S
MICHIGAN CITY              65      30/  8/  9   N/A
$$

ILZ025>027-034>036-040-047-049-050-058-095>099-101500-
WEST-CENTRAL ILLINOIS

CITY           SKY/WX    TMP DP  RH WIND       PRES   REMARKS
QUINCY         SUNNY     72  60  66 S6        30.16R
GALESBURG*     PTSUNNY   71  62  73 S3        30.16R
MACOMB*        SUNNY     69  63  80 SE5       30.19R
JACKSONVILLE*  SUNNY     73  62  69 SE3       30.17R
PITTSFIELD*    SUNNY     73  61  66 E3        30.17R
$$

ILZ028>032-037-038-041>044-048-051>054-059>061-101500-
CENTRAL ILLINOIS

CITY           SKY/WX    TMP DP  RH WIND       PRES   REMARKS
PONTIAC        SUNNY     70  61  73 SE3       30.17R
BLOOMINGTON    SUNNY     69  57  65 SE7       30.18R
DECATUR        SUNNY     71  61  70 E6        30.16R
PEORIA         MOSUNNY   73  57  57 SE3       30.16R
LACON*         MOSUNNY   69  59  69 CALM      30.16R
LINCOLN*       SUNNY     72  60  67 CALM      30.14S
SPRINGFIELD    SUNNY     73  60  63 SE7       30.16R
TAYLORVILLE    SUNNY     70  59  68 E6        30.15S
$$

ILZ033-039-045-046-055>057-062-063-101500-
EAST-CENTRAL ILLINOIS

CITY           SKY/WX    TMP DP  RH WIND       PRES   REMARKS
CHAMPAIGN      SUNNY     71  60  68 E7        30.17R
RANTOUL*       SUNNY     72  57  59 E5        30.18R
MATTOON        SUNNY     71  60  68 NE5       30.15R
PARIS*         MOSUNNY   71  62  72 NE3       30.17R
$$

ILZ079-100>102-101500-
SOUTHWEST ILLINOIS

CITY           SKY/WX    TMP DP  RH WIND       PRES   REMARKS
CAHOKIA*       SUNNY     74  61  63 CALM      30.15R
SPARTA*        SUNNY     72  63  73 E5        30.14R
$$

ILZ064>066-069>071-074>076-080>082-084>086-088>090-092>094-101500-
SOUTH-CENTRAL ILLINOIS

CITY           SKY/WX    TMP DP  RH WIND       PRES   REMARKS
CARBONDALE     SUNNY     73  61  65 NE6       30.13R
CAIRO*         SUNNY     79  64  59 NE8       30.11R HX  81
MARION         MOSUNNY   73  64  73 NE6       30.14R
MT. VERNON     SUNNY     73  61  64 NE6       30.14R
CENTRALIA*     SUNNY     77  60  55 CALM      30.14R
SALEM*         SUNNY     74  62  65 CALM      30.14S
METROPOLIS*    SUNNY     77  61  57 E3        30.10S
$$

ILZ067-068-072-073-078-083-087-091-101500-
SOUTHEAST ILLINOIS

CITY           SKY/WX    TMP DP  RH WIND       PRES   REMARKS
FLORA*         SUNNY     70  62  73 N3        30.14R
HARRISBURG*    SUNNY     73  62  68 NE5       30.13R
ROBINSON*      SUNNY     72  64  74 NE6       30.15R
CARMI*         SUNNY     74  65  72 CALM      30.12R
$$

ABBREVIATIONS USED IN REMARKS
   TC - TEMPERATURE IN CELSIUS
  WCI - WIND CHILL INDEX
   HX - HEAT INDEX
  VSB - VISIBILITY
$$



USA.gov is the U.S. government's official web portal to all federal, state and local government web resources and services.